Regional Weather Roundup
Issued by NWS

Home | Current Version | Previous Version | Graphics & Text | Print | Product List | Glossary On
Versions: 1 2 3 4 5 6 7 8 9 10 11 12 13 14 15 16 17 18 19 20 21 22 23 24 25 26 27 28 29 30 31 32 33 34 35 36 37 38 39 40 41 42 43 44 45 46 47 48 49 50
000
ASUS43 KIND 011009
RWRIN

WEATHER ROUNDUP FOR INDIANA
NATIONAL WEATHER SERVICE INDIANAPOLIS IN
600 AM EDT SAT OCT 01 2016

NOTE: "FAIR" INDICATES FEW OR NO CLOUDS BELOW 12,000 FEET WITH NO
SIGNIFICANT WEATHER AND/OR OBSTRUCTIONS TO VISIBILITY.

* - STATION DOES NOT REPORT WEATHER SUCH AS PRECIPITATION OR FOG.

+ - STATION NOT QUALITY CONTROLLED BY THE NATIONAL WEATHER SERVICE.
    USE DATA WITH CAUTION...ESPECIALLY DEWPOINT AND RELATIVE
    HUMIDITY OBSERVATIONS.

INZ001>003-010>013-019-020-011100-
NORTHWEST INDIANA

CITY           SKY/WX    TMP DP  RH WIND       PRES   REMARKS
GARY /AIRPORT/ MOCLDY    57  57 100 NE3       30.02F
KNOX *+        CLOUDY    57  50  77 CALM      30.00S
LA PORTE +     LGT RAIN N/A N/A N/A N7        30.01S
MICHIGAN CITY+ CLOUDY    59  59 100 N5        30.01F
MONTICELLO +   CLOUDY    58  54  85 CALM      29.99S
RENSSELAER +   CLOUDY    57  57 100 CALM      30.00S
VALPARAISO     CLOUDY    58  57  97 NE3       30.01F

$$

LMZ046-743>745-011100-
SOUTHERN LAKE MICHIGAN

STATION/POSITION TIME  TEMP    WIND        PRES    WAVE
                       AIR SEA DIR/SP/G            HT
                 (UTC) (F)     (DEG/KT/KT) (MB)    (FT)
BURNS HARBOR     0940   62      40/  9/ 10 1016.6F
MICHIGAN CITY    0940   61      10/ 14/ 16   N/A
5NW MICH CITY    1000   62 64   40/ 12/ 17   N/A     3

$$

INZ004-005-014>016-021>024-011100-
NORTH CENTRAL INDIANA

CITY           SKY/WX    TMP DP  RH WIND       PRES   REMARKS
GOSHEN         RAIN      60  57  89 NE9       29.99S FOG
LOGANSPORT +   CLOUDY    57  55  94 CALM      29.99F FOG
PERU/GRISSOM   CLOUDY    59  59 100 S2        29.98S
ROCHESTER +    RAIN      61  61 100 N3        30.00R
SOUTH BEND     TSTM      58  58 100 NE7       30.00F FOG
WARSAW +       HVY RAIN  59  55  88 CALM      29.99S

$$

INZ006>009-017-018-025>027-011100-
NORTHEAST INDIANA

CITY           SKY/WX    TMP DP  RH WIND       PRES   REMARKS
ANGOLA *+        N/A     59  48  67 E8        30.01S
AUBURN +       CLOUDY    59  57  94 E6        30.00S FOG
FORT WAYNE     CLOUDY    58  57  97 SE3       30.00R FOG
HUNTINGTON +   CLOUDY    58  56  96 CALM      29.99S FOG
KENDALLVILLE + CLOUDY    59  59 100 E6        30.00S

$$

INZ028-029-035-036-043>045-051>053-011100-
WEST CENTRAL INDIANA

CITY           SKY/WX    TMP DP  RH WIND       PRES   REMARKS
CRAWFORDSVL +  CLOUDY    53  53 100 CALM      29.99S FOG
GREENCASTLE +  CLOUDY    52  52 100 CALM      30.00F FOG
LAFAYETTE      CLOUDY    57  57 100 S5        29.98S
TERRE HAUTE    CLOUDY    55  54  96 S5        29.99S FOG

$$

INZ030>032-037>040-046>048-054>057-064-065-011100-
CENTRAL INDIANA

CITY           SKY/WX    TMP DP  RH WIND       PRES   REMARKS
FISHERS *+     MOCLDY    52  52 100 CALM      30.00
FRANKFORT +    CLOUDY    58  57  96 CALM      30.01S FOG
GREENWOOD *+   CLOUDY    52  52 100 SE3       30.01S
INDIANAPOLIS   PTCLDY    53  51  93 SE3       29.99F
-EAGLE CREEK   PTCLDY    53  51  93 SE5       30.00S FOG
KOKOMO *+      CLOUDY    57  57 100 S5        30.00F
MARION +       CLOUDY    56  56 100 SW3       30.01R
MT COMFORT *+  PTCLDY    50  50 100 CALM      30.01S
SHELBYVILLE    LGT RAIN  55  52  89 CALM      30.00S
ZIONSVILLE +   CLOUDY    53  53  99 CALM      30.00F FOG

$$

INZ033-034-041-042-049-050-058-059-011100-
EAST CENTRAL INDIANA

CITY           SKY/WX    TMP DP  RH WIND       PRES   REMARKS
MUNCIE         CLOUDY    56  53  90 S3        30.01R

$$

INZ060-061-067>069-081>083-085>088-011100-
SOUTHWEST INDIANA

CITY           SKY/WX    TMP DP  RH WIND       PRES   REMARKS
EVANSVILLE     FOG       58  56  93 E3        30.00R VSB 1/2
HUNTINGBURG *+   N/A     55  52  88 SE5       30.01R VSB 1/2
WASHINGTON +   PTCLDY    51  51 100 CALM      30.00R FOG

$$

INZ062-063-066-070>080-084-089>092-011100-
SOUTH CENTRAL AND SOUTHEAST INDIANA

CITY           SKY/WX    TMP DP  RH WIND       PRES   REMARKS
BLOOMINGTON    FOG       52  51  97 SE3       30.00S VSB 1/4
MADISON *+     CLOUDY    54  52  94 S3        30.03S
NORTH VERNON + MOCLDY   N/A N/A N/A CALM      30.01F HAZE
SEYMOUR +      MOCLDY    52  52 100 CALM      30.02R FOG

$$





USA.gov is the U.S. government's official web portal to all federal, state and local government web resources and services.